• In Deutschland
  • Länderverzeichnis
  • Für 7 Tage
  • Wassertemperatur
  • Satellitenkarten
  • Wetterkarte
  • Widgets
  • user-avatar
    Anmelden

    Stündliche Wetter Naftalan

    Heute, 25 Mai, Donnerstag

    Zeit Temperatur Niederschläge Wind Luftdruck Luftfeuchtigkeit
    00:00 +18°C° 0 mm 3 m/S 763 mmHg 72%
    01:00 +17°C° 0 mm 3 m/S 763 mmHg 73%
    02:00 +17°C° 0 mm 2 m/S 763 mmHg 74%
    03:00 +17°C° 0 mm 2 m/S 763 mmHg 76%
    04:00 +18°C° 0 mm 2 m/S 763 mmHg 72%
    05:00 +19°C° 0 mm 2 m/S 764 mmHg 68%
    06:00 +20°C° 0 mm 2 m/S 764 mmHg 65%
    07:00 +21°C° 0 mm 2 m/S 764 mmHg 56%
    08:00 +24°C° 0 mm 2 m/S 764 mmHg 47%
    09:00 +25°C° 0 mm 2 m/S 764 mmHg 38%
    10:00 +27°C° 0 mm 2 m/S 764 mmHg 36%
    11:00 +28°C° 0 mm 3 m/S 764 mmHg 34%
    12:00 +29°C° 0 mm 3 m/S 764 mmHg 32%
    13:00 +29°C° 0 mm 4 m/S 764 mmHg 35%
    14:00 +29°C° 0 mm 5 m/S 763 mmHg 37%
    15:00 +29°C° 0 mm 5 m/S 763 mmHg 40%
    16:00 +27°C° 0 mm 5 m/S 763 mmHg 48%
    17:00 +25°C° 0 mm 5 m/S 763 mmHg 55%
    18:00 +23°C° 0 mm 5 m/S 764 mmHg 62%
    19:00 +22°C° 0 mm 5 m/S 764 mmHg 66%
    20:00 +20°C° 0 mm 5 m/S 764 mmHg 71%
    21:00 +19°C° 0 mm 4 m/S 765 mmHg 75%
    22:00 +19°C° 0 mm 4 m/S 765 mmHg 76%
    23:00 +18°C° 0 mm 4 m/S 765 mmHg 76%

    Morgen, 26 Mai, Freitag

    Zeit Temperatur Niederschläge Wind Luftdruck Luftfeuchtigkeit
    00:00 +18°C° 0 mm 3 m/S 765 mmHg 76%
    01:00 +17°C° 0 mm 3 m/S 765 mmHg 77%
    02:00 +17°C° 0 mm 3 m/S 765 mmHg 78%
    03:00 +17°C° 0 mm 3 m/S 764 mmHg 79%
    04:00 +18°C° 0 mm 2 m/S 765 mmHg 77%
    05:00 +18°C° 0 mm 2 m/S 765 mmHg 74%
    06:00 +19°C° 0 mm 2 m/S 765 mmHg 72%
    07:00 +21°C° 0 mm 2 m/S 765 mmHg 66%
    08:00 +23°C° 0 mm 2 m/S 765 mmHg 61%
    09:00 +24°C° 0 mm 2 m/S 765 mmHg 55%
    10:00 +25°C° 0 mm 3 m/S 764 mmHg 53%
    11:00 +26°C° 0 mm 3 m/S 764 mmHg 51%
    12:00 +27°C° 0 mm 4 m/S 764 mmHg 49%
    13:00 +27°C° 0 mm 4 m/S 763 mmHg 49%
    14:00 +27°C° 0 mm 5 m/S 763 mmHg 49%
    15:00 +27°C° 0 mm 5 m/S 762 mmHg 49%
    16:00 +26°C° 0 mm 5 m/S 762 mmHg 53%
    17:00 +25°C° 0 mm 5 m/S 762 mmHg 58%
    18:00 +23°C° 0 mm 4 m/S 761 mmHg 62%
    19:00 +21°C° 0 mm 4 m/S 762 mmHg 69%
    20:00 +20°C° 0 mm 3 m/S 762 mmHg 75%
    21:00 +19°C° 0 mm 3 m/S 763 mmHg 81%
    22:00 +18°C° 0 mm 3 m/S 762 mmHg 83%
    23:00 +18°C° 0 mm 2 m/S 762 mmHg 85%

    übermorgen, 27 Mai, Samstag

    Zeit Temperatur Niederschläge Wind Luftdruck Luftfeuchtigkeit
    00:00 +17°C° 0 mm 2 m/S 762 mmHg 87%
    01:00 +17°C° 0 mm 2 m/S 762 mmHg 88%
    02:00 +16°C° 0 mm 2 m/S 762 mmHg 88%
    03:00 +16°C° 0 mm 2 m/S 762 mmHg 89%
    04:00 +17°C° 0 mm 2 m/S 762 mmHg 85%
    05:00 +19°C° 0 mm 1 m/S 762 mmHg 81%
    06:00 +20°C° 0 mm 1 m/S 762 mmHg 76%
    07:00 +22°C° 0 mm 1 m/S 762 mmHg 69%
    08:00 +24°C° 0 mm 2 m/S 762 mmHg 62%
    09:00 +25°C° 0 mm 2 m/S 761 mmHg 54%
    10:00 +26°C° 0 mm 2 m/S 761 mmHg 51%
    11:00 +28°C° 0 mm 3 m/S 760 mmHg 48%
    12:00 +29°C° 0 mm 3 m/S 760 mmHg 44%
    13:00 +29°C° 0 mm 3 m/S 759 mmHg 44%
    14:00 +29°C° 0 mm 4 m/S 759 mmHg 43%
    15:00 +29°C° 0 mm 4 m/S 758 mmHg 43%
    16:00 +28°C° 0,2 mm 4 m/S 758 mmHg 46%
    17:00 +26°C° 0,2 mm 4 m/S 758 mmHg 50%
    18:00 +25°C° 0,2 mm 4 m/S 758 mmHg 53%
    19:00 +22°C° 0 mm 3 m/S 758 mmHg 60%
    20:00 +21°C° 0 mm 2 m/S 759 mmHg 67%
    21:00 +20°C° 0 mm 1 m/S 759 mmHg 74%
    22:00 +19°C° 0 mm 2 m/S 759 mmHg 75%
    23:00 +18°C° 0 mm 2 m/S 759 mmHg 77%

    28 Mai, Sonntag

    Zeit Temperatur Niederschläge Wind Luftdruck Luftfeuchtigkeit
    00:00 +18°C° 0 mm 2 m/S 759 mmHg 79%
    01:00 +18°C° 0 mm 2 m/S 759 mmHg 79%
    02:00 +17°C° 0 mm 2 m/S 759 mmHg 79%
    03:00 +17°C° 0 mm 2 m/S 759 mmHg 79%
    04:00 +19°C° 0 mm 1 m/S 759 mmHg 73%
    05:00 +21°C° 0 mm 1 m/S 759 mmHg 68%
    06:00 +23°C° 0 mm 1 m/S 760 mmHg 62%
    07:00 +25°C° 0 mm 1 m/S 760 mmHg 56%
    08:00 +26°C° 0 mm 1 m/S 760 mmHg 49%
    09:00 +28°C° 0 mm 1 m/S 760 mmHg 43%
    10:00 +30°C° 0 mm 2 m/S 759 mmHg 39%
    11:00 +31°C° 0 mm 2 m/S 759 mmHg 36%
    12:00 +34°C° 0 mm 3 m/S 758 mmHg 33%
    13:00 +34°C° 0 mm 3 m/S 758 mmHg 33%
    14:00 +34°C° 0 mm 4 m/S 758 mmHg 34%
    15:00 +34°C° 0 mm 5 m/S 757 mmHg 34%
    16:00 +32°C° 0 mm 5 m/S 758 mmHg 41%
    17:00 +29°C° 0 mm 5 m/S 758 mmHg 48%
    18:00 +27°C° 0 mm 5 m/S 758 mmHg 54%
    19:00 +25°C° 0 mm 5 m/S 759 mmHg 57%
    20:00 +23°C° 0 mm 5 m/S 760 mmHg 61%
    21:00 +21°C° 0 mm 4 m/S 761 mmHg 64%
    22:00 +20°C° 0 mm 4 m/S 761 mmHg 63%
    23:00 +20°C° 0 mm 4 m/S 762 mmHg 63%

    29 Mai, Montag

    Zeit Temperatur Niederschläge Wind Luftdruck Luftfeuchtigkeit
    00:00 +19°C° 0 mm 4 m/S 762 mmHg 62%
    01:00 +19°C° 0 mm 5 m/S 763 mmHg 63%
    02:00 +19°C° 0 mm 5 m/S 764 mmHg 64%
    03:00 +19°C° 0 mm 6 m/S 764 mmHg 65%
    04:00 +20°C° 0 mm 7 m/S 765 mmHg 64%
    05:00 +21°C° 0 mm 7 m/S 766 mmHg 63%
    06:00 +22°C° 0 mm 8 m/S 767 mmHg 61%
    07:00 +23°C° 0 mm 8 m/S 767 mmHg 58%
    08:00 +23°C° 0 mm 8 m/S 768 mmHg 55%
    09:00 +24°C° 0 mm 8 m/S 768 mmHg 52%
    10:00 +24°C° 0 mm 8 m/S 768 mmHg 52%
    11:00 +24°C° 0 mm 8 m/S 768 mmHg 52%
    12:00 +24°C° 0 mm 8 m/S 767 mmHg 53%
    13:00 +23°C° 0 mm 8 m/S 767 mmHg 53%
    14:00 +23°C° 0 mm 8 m/S 767 mmHg 53%
    15:00 +23°C° 0 mm 8 m/S 767 mmHg 53%
    16:00 +22°C° 0 mm 8 m/S 767 mmHg 55%
    17:00 +21°C° 0 mm 7 m/S 768 mmHg 56%
    18:00 +20°C° 0 mm 7 m/S 768 mmHg 57%
    19:00 +18°C° 0 mm 7 m/S 768 mmHg 59%
    20:00 +17°C° 0 mm 6 m/S 769 mmHg 62%
    21:00 +17°C° 0 mm 5 m/S 769 mmHg 64%
    22:00 +16°C° 0 mm 5 m/S 769 mmHg 65%
    23:00 +16°C° 0 mm 5 m/S 769 mmHg 66%

    30 Mai, Dienstag

    Zeit Temperatur Niederschläge Wind Luftdruck Luftfeuchtigkeit
    00:00 +17°C° 0 mm 4 m/S 768 mmHg 67%
    01:00 +15°C° 0 mm 4 m/S 768 mmHg 69%
    02:00 +16°C° 0 mm 3 m/S 768 mmHg 70%
    03:00 +16°C° 0 mm 3 m/S 768 mmHg 72%
    04:00 +16°C° 0 mm 3 m/S 767 mmHg 70%
    05:00 +17°C° 0 mm 2 m/S 767 mmHg 68%
    06:00 +18°C° 0 mm 2 m/S 767 mmHg 66%
    07:00 +19°C° 0 mm 2 m/S 767 mmHg 62%
    08:00 +21°C° 0 mm 2 m/S 766 mmHg 57%
    09:00 +23°C° 0 mm 2 m/S 766 mmHg 53%
    10:00 +24°C° 0 mm 2 m/S 765 mmHg 49%
    11:00 +26°C° 0 mm 2 m/S 764 mmHg 46%
    12:00 +27°C° 0 mm 3 m/S 763 mmHg 42%
    13:00 +27°C° 0 mm 3 m/S 762 mmHg 41%
    14:00 +28°C° 0 mm 3 m/S 762 mmHg 41%
    15:00 +28°C° 0 mm 3 m/S 761 mmHg 40%
    16:00 +27°C° 0 mm 3 m/S 761 mmHg 44%
    17:00 +27°C° 0 mm 3 m/S 761 mmHg 47%
    18:00 +26°C° 0 mm 3 m/S 760 mmHg 50%
    19:00 +24°C° 0 mm 3 m/S 761 mmHg 56%
    20:00 +21°C° 0 mm 3 m/S 761 mmHg 62%
    21:00 +20°C° 0 mm 3 m/S 761 mmHg 68%
    22:00 +20°C° 0 mm 3 m/S 761 mmHg 67%
    23:00 +20°C° 0 mm 3 m/S 761 mmHg 66%
    Mehr zeigen